[Date Prev][Date Next][Thread Prev][Thread Next] - [Date Index][Thread Index][Author Index]

2 Line ISS Keps 10-27



ISS
1 25544U 98067A   05299.97166874  .00016027  00000-0  11253-3 0  6283
2 25544 051.6444 305.6174 0001226 093.4807 350.8214 15.74357815396427
----
Via the sarex mailing list at AMSAT.ORG courtesy of AMSAT-NA.
To unsubscribe, send "unsubscribe sarex" to Majordomo@amsat.org



AMSAT Top AMSAT Home